Regional Weather Roundup
Issued by NWS Green Bay, WI

Home | Current Version | Previous Version | Graphics & Text | Print | Product List | Glossary Off
Versions: 1 2 3 4 5 6 7 8 9 10 11 12 13 14 15 16 17 18 19 20 21 22 23 24 25 26 27 28 29 30 31 32 33 34 35 36 37 38 39 40 41 42 43 44 45 46 47 48 49 50

000
ASUS43 KGRB 231610
RWRGRB

NORTH-CENTRAL AND NORTHEAST WISCONSIN REGIONAL WEATHER ROUNDUP
NATIONAL WEATHER SERVICE GREEN BAY WI
1100 AM CDT TUE SEP 23 2014

WIZ005-009-010>012-018-019-231700-
NORTH CENTRAL WISCONSIN

CITY           SKY/WX    TMP DP  RH WIND       PRES   REMARKS
IRONWOOD       SUNNY     68  54  60 SW9       30.22S
MANITOWISH WTR SUNNY     65  53  64 SW5       30.27R
ARBOR VITAE    SUNNY     65  51  60 SW6       30.27S
EAGLE RIVER    SUNNY     66  49  53 W7        30.27S
LAND O LAKES   SUNNY     68  51  54 W5        30.28R
RHINELANDER    SUNNY     66  53  63 SW8       30.29R
PHILLIPS       SUNNY     64  53  66 SW3       30.27S
ANTIGO         SUNNY     66  52  60 W6        30.29S
TOMAHAWK       SUNNY     65  52  61 CALM      30.29S
MERRILL        SUNNY     65  53  65 S6        30.29S
$$

WIZ013-073-231700-
NORTHEAST WISCONSIN

CITY           SKY/WX    TMP DP  RH WIND       PRES   REMARKS
IRON MOUNTAIN  SUNNY     68  53  58 VRB3      30.25S
MARINETTE      SUNNY     64  54  68 W5        30.26F
OCONTO         SUNNY     67  54  62 W8        30.27S
$$

WIZ017-030-035>037-045-231700-
CENTRAL WISCONSIN

CITY           SKY/WX    TMP DP  RH WIND       PRES   REMARKS
MEDFORD        SUNNY     66  51  58 SW5       30.29S
WAUSAU         SUNNY     65  52  62 S6        30.29R
MOSINEE        SUNNY     64  54  68 SW3       30.31
MARSHFIELD     SUNNY     66  54  65 SW7       30.30R
WISC RAPIDS    SUNNY     66  52  60 W7        30.32R
STEVENS POINT  SUNNY     64  50  60 SW3       30.30F
WAUPACA        SUNNY     69  55  61 S5        30.30F
SHAWANO        SUNNY     68  55  61 W7        30.29S
CLINTONVILLE   SUNNY     66  52  59 W5        30.29S
$$

WIZ038-039-048-051-231700-
FOX VALLEY

CITY           SKY/WX    TMP DP  RH WIND       PRES   REMARKS
NWS GREEN BAY  SUNNY     68  56  65 SW6       30.29S
APPLETON       NOT AVBL
OSHKOSH        SUNNY     67  53  61 SW6       30.30S
FOND DU LAC    SUNNY     67  53  61 W5        30.31S
$$

WIZ022-050-052-231700-
EAST CENTRAL WISCONSIN

CITY           SKY/WX    TMP DP  RH WIND       PRES   REMARKS
STURGEON BAY   SUNNY     66  54  63 W9        30.28F
MANITOWOC      SUNNY     69  54  58 VRB6      30.30S
SHEBOYGAN      SUNNY     70  52  52 VRB3      30.30S
$$

LMZ563-521-522-541>543-231700-
LAKESHORE

STATION/POSITION TIME  TEMP    WIND        PRES    VSBY  WAVE
                       AIR SEA DIR/SP/G                  HT/PER
                 (UTC) (F)     (DEG/KT/KT) (MB)    (MI)  (FT/S)
SHEBOYGAN LKSHOR 1600   55 53  160/  5/  7 1026.6R
KEWAUNEE LKSHORE 1600   67     280/  5/  9 1024.4S
TWO RIVERS CG    1500   56 64              1026.0      6   1
NORTHPORT PIER   1600   65     270/  7/ 10 1024.4S
N MID LAKE BUOY  1600   58 57  220/  8/  8 1025.1R         2/ 4
S GREEN BAY BUOY 1600   59     VRB  8/ 10  1026.2F
SISTER BAY LKSHO 1500          290/  8/  9   N/A
STURGEON BAY CG  1500   66 52  170/  8     1024.6      6   1
CHAMBERS ISLAND  1600   61     200/  4/  8 1025.1S
MENOMINEE LKSHOR 1600   65     260/  4/  6 1025.2F
$$



USA.gov is the U.S. government's official web portal to all federal, state and local government web resources and services.